Showing default

IRIDIUM 150, 43257

Orbit data source: Space-Track

IRIDIUM 150, 43257 is a payload satellite owned by Iridium (US) in LEO that was launched on Fri, 30 Mar 2018 UTC via an FALCON 9 launch vehicle from the Air Force Western Test Range (AFWTR). Payload-class satellites include a variety of spacecraft equipped with specific instruments for various scientific and technological missions. These include communications satellites like Starlink; space stations such as the ISS; scientific satellites like the Hubble; Earth observation satellites from companies like Planet Labs, Umbra, and HawkEye 360; GPS; miniature CubeSats for education and research; and military/defense satellites.

Loading next visibility...
Identifier
43257, 2018-030J
Orbit
LEO
Country
Flag of USUS
Related business
Manufacturer
OATK SSG Gilbert
Mission
Operational Commercial Communications
Bus & Motor
ELITEBUS, Unknown motor
Mass
860 kg wet, 700 kg dry
Launch date (UTC)
2018-03-30 (8 years ago)
Launch vehicle
FALCON 9
Launch site
Air Force Western Test Range (AFWTR)
Object type
Payload
Rocket body
Debris
Shape & HBR
Trap Box + 2 Pan, 4.8 m
Radar Cross Section
10.154 m², Large (>1 m²)

Expand to show TLE details & history
Last TLE update: 8 hours ago

TLE from 8 hours ago
0 IRIDIUM 150
1 43257U 18030J   25289.02808521  .00000491  00000-0  16809-3 0  9996
2 43257  86.4004  32.5193 0002015  90.5845 269.5582 14.34223004395161
Epoch: 2025-10-16T00:40Z
TLE epoch observation values (Epoch: 2025-10-16T00:40:26.562Z)
Latitude
0.00003°
Longitude
-2.38507°
Altitude
780.712 km
Speed
7.463 km/s
True Right ascension
02h 10m 04s
True Declination
0° 00' 00"
Sunlit
Object was in full shadow at epoch
Visualization orbit readout
Latitude
Unknown
Longitude
Unknown
Altitude
Unknown
Speed
Unknown
Apparent Right ascension
Unknown
Apparent Declination
Unknown
Sunlit
N/A
Visualization observer readout
Local Sidereal Time
02:54:59
Azimuth
Unknown
Elevation
Unknown
Doppler factor
Unknown
Orbital elements
Apogee altitude
776.055 km
Perigee altitude
773.173 km
Semi-major axis
7,152.751 km
Eccentricity
0.0002
Inclination
86.4004°
RAAN
32.5193°
Arg. of periapsis
90.5845°
True anomaly
269.53511°
Mean anomaly
269.5582°
Eccentric anomaly
269.54666°
Mean motion
3.58784 °/min
Orbital period
100.34 mins
BSTAR
0.00016809
Loading maneuver chart data...
Computing Atmospheric mass density...
Loading historical data...
Loading historical data...
Loading historical data...
Loading historical data...
Loading historical data...
Loading historical data...
Loading historical data...

Documentation

Showing up to 5 results
|